This demonstration page uses our WeatherBlox Daily Observations layout. Learn more.

Left ArrowRight Arrow

34.16533, -84.80231

Hourly Observations for May 7, 2017

Temp ( °F °C ) Dew Point ( °F °C ) Humidity (%) Winds ( mph kmh ) Pressure ( in mb ) Visibility ( mi km ) Precip ( " mm )
12:53 am 00:53 Cloudy 53 11.7 53 11.7 100 100 VRB 3 6 29.90 1013 10 16 0.00 0.00
1:53 am 01:53 Cloudy 53 11.7 53 11.7 100 100 Calm 29.91 1013 10 16 0.00 0.00
2:53 am 02:53 Mostly Cloudy 52 11.1 52 11.1 100 100 Calm 29.91 1013 7 11 0.00 0.00
3:53 am 03:53 Mostly Cloudy with Mist and Fog 49 9.4 49 9.4 100 100 Calm 29.91 1013 6 10 0.00 0.00
4:53 am 04:53 Mostly Clear with Mist and Fog 47 8.3 47 8.3 100 100 Calm 29.92 1013 6 10 0.00 0.00
5:53 am 05:53 Partly Cloudy with Mist and Fog 45 7.2 45 7.2 100 100 Calm 29.94 1014 6 10 0.00 0.00
6:02 am 06:02 Mostly Cloudy with Mist and Fog 46 7.8 46 7.8 100 100 Calm 30.00 1016 4 6 0.00 0.00
6:04 am 06:04 Mostly Cloudy with Mist and Fog 46 7.8 46 7.8 100 100 Calm 30.00 1016 2 2 0.00 0.00
6:12 am 06:12 Mostly Cloudy with Fog 45 7.2 45 7.2 100 100 Calm 30.00 1016 1 1 0.00 0.00
6:38 am 06:38 Mostly Cloudy with Fog 46 7.8 46 7.8 100 100 Calm 30.00 1016 0 0 0.00 0.00
6:53 am 06:53 Mostly Cloudy with Fog 46 7.8 46 7.8 100 100 Calm 29.96 1015 5 8 0.00 0.00
7:50 am 07:50 Mostly Cloudy with Light Rain 48 9 48 9 100 100 Calm 30.06 1018 1 1 0.00 0.03
7:53 am 07:53 Mostly Cloudy with Light Rain 48 8.9 48 8.9 100 100 Calm 30.00 1016 1 2 0.00 0.03
7:56 am 07:56 Mostly Cloudy with Light Rain 48 8.9 48 8.9 100 100 Calm 30.06 1018 3 5 0.00 0.03
8:10 am 08:10 Partly Cloudy with Light Rain 49 9.4 49 9.4 100 100 Calm 30.06 1018 10 16 0.00 0.03
8:53 am 08:53 Sunny 52 11.1 49 9.4 89 89 VRB 3 6 30.03 1017 10 16 0.00 0.03
9:53 am 09:53 Sunny 56 13.3 43 6.1 62 62 N 7 11 30.05 1018 10 16 0.00 0.00
10:53 am 10:53 Sunny 59 15 39 3.9 48 48 N 6 9 30.05 1018 10 16 0.00 0.00
11:53 am 11:53 Sunny 61 16.1 35 1.7 38 38 N 9 15 30.06 1018 10 16 0.00 0.00
12:53 pm 12:53 Sunny 63 17.2 36 2.2 37 37 VRB 7 11 30.04 1017 10 16 0.00 0.00
1:53 pm 13:53 Sunny 64 17.8 39 3.9 40 40 VRB 5 7 30.03 1017 10 16 0.00 0.00
2:53 pm 14:53 Sunny 66 18.9 40 4.4 39 39 Calm 30.01 1016 10 16 0.00 0.00
3:53 pm 15:53 Sunny 67 19.4 40 4.4 37 37 VRB 6 9 29.99 1016 10 16 0.00 0.00
4:53 pm 16:53 Sunny 68 20 41 5 38 38 NNW 6 9 29.98 1015 10 16 0.00 0.00
5:53 pm 17:53 Sunny 69 20.6 41 5 36 36 Calm 29.97 1015 10 16 0.00 0.00
6:53 pm 18:53 Sunny 68 20 42 5.6 39 39 Calm 29.97 1015 10 16 0.00 0.00
7:53 pm 19:53 Sunny 65 18.3 43 6.1 45 45 Calm 29.97 1015 10 16 0.00 0.00
8:53 pm 20:53 Clear 58 14.4 46 7.8 65 65 Calm 29.98 1015 10 16 0.00 0.00
9:53 pm 21:53 Clear 55 12.8 47 8.3 74 74 Calm 30.00 1016 10 16 0.00 0.00
10:53 pm 22:53 Clear 50 10 48 8.9 93 93 Calm 30.01 1016 10 16 0.00 0.00
11:53 pm 23:53 Clear 48 8.9 47 8.3 96 96 SSW 3 6 30.01 1016 10 16 0.00 0.00

Powered by AerisWeather